Location: Rounton
(54.4000°N, 1.3500°W)
Time: 04:28:48
(UTC+00:00)

S-56A Canister/Altair - Pass Details

Date: 01 December 2021
Orbit: 633 x 2499 km, 38.9° (Epoch: 17 January)

Event Time Altitude Azimuth Distance (km) Brightness Sun altitude
Rises 02:51:07 0° 239° (WSW) 4,095 - -43.6°
Reaches altitude 10° 02:55:18 10° 221° (SW) 2,779 - -43.1°
Maximum altitude 02:59:12 17° 183° (S) 2,036 - -42.6°
Drops below altitude 10° 03:02:29 10° 144° (SE) 2,267 - -42.1°
Exits shadow 03:05:14 - 123° (ESE) 2,987 10.9 -41.7°
Sets 03:05:24 0° 122° (ESE) 3,039 11.0 -41.7°
